Wind_Speed
29 26 26 27 22 17 19 23 23 24 23 20 20 19 14 11 11 12 13 16 17 16 16 15 14 17 15 14 16 14 12 13 14 14 13 14 14 13 13 12 12 12 11 10 9 9 9 8 8 9 9 7 7 8 9 9 9 8 7 7 6 7 8 9 8 8 7 6 7 6 5 5 4 3 2 3 3 2 2 2 2 2 3 3 3
27 25 27 26 21 20 24 25 23 25 24 19 19 18 14 12 9 11 13 16 18 16 17 17 16 16 12 10 10 12 12 12 15 18 16 15 14 13 13 13 13 12 11 10 9 8 8 7 8 9 7 8 9 9 10 10 9 8 7 6 6 7 9 8 7 8 8 8 8 8 6 4 3 3 3 4 3 2 2 2 2 3 3 3 2
27 25 26 26 24 25 28 26 23 25 24 21 20 14 9 9 10 11 14 15 15 13 13 15 16 17 18 16 10 6 8 10 13 16 16 15 14 13 13 12 11 10 10 10 8 8 8 8 9 8 8 9 9 9 10 10 9 8 7 6 7 8 9 8 8 9 9 9 9 8 6 5 5 4 4 4 4 3 3 3 3 3 3 3 2
29 27 27 27 26 26 26 24 22 25 25 22 20 15 6 7 9 9 11 12 13 14 14 14 15 17 20 22 20 14 11 10 10 10 11 13 13 11 11 10 9 9 9 9 9 9 8 9 9 9 9 9 10 9 10 10 9 8 8 8 9 9 9 9 9 10 11 11 10 8 7 7 6 6 5 5 5 5 4 4 4 3 3 2 2
29 27 27 27 28 27 24 23 21 23 24 24 23 21 15 13 12 10 10 11 12 15 15 16 17 19 19 21 24 23 21 19 16 14 12 12 12 10 9 9 9 9 9 9 9 8 8 10 10 10 10 11 11 10 9 9 9 10 9 9 10 10 9 9 8 10 11 11 10 8 8 8 7 7 7 6 6 6 5 5 4 3 3 3 3
31 28 27 27 28 27 24 23 22 21 23 25 26 27 23 20 17 15 15 15 16 16 16 17 18 19 19 18 20 22 24 23 21 20 18 16 14 12 10 10 10 10 10 10 9 9 10 11 11 12 12 12 12 11 9 8 8 9 9 8 9 9 8 7 8 9 10 10 10 9 8 8 7 7 8 7 7 6 6 5 5 5 4 4 4
33 31 28 27 28 27 24 23 24 23 23 24 24 27 27 23 19 18 17 17 18 19 18 17 19 20 19 17 17 19 21 21 20 20 20 20 18 15 13 12 11 11 11 10 11 12 13 13 13 13 14 13 12 11 10 9 9 9 8 8 8 8 7 7 7 9 9 10 10 9 8 8 8 8 8 8 7 7 7 6 6 6 5 5 6
30 31 30 28 28 28 24 22 25 25 24 25 24 23 24 23 19 16 16 17 17 18 18 18 18 19 20 19 19 18 18 18 18 18 20 20 19 16 14 13 12 11 10 10 12 14 14 14 14 15 14 12 10 10 10 9 9 9 8 9 9 8 7 7 8 9 9 9 9 8 8 8 8 8 9 8 8 8 8 7 7 7 6 6 6
24 26 27 27 26 27 23 19 23 26 26 26 26 23 23 26 22 17 17 19 18 18 18 19 20 21 22 22 21 19 18 17 17 18 19 19 18 16 14 12 12 11 10 10 11 14 15 16 15 15 14 12 11 11 10 9 9 9 8 9 10 9 7 7 8 9 8 8 8 7 7 8 8 8 9 9 9 9 8 8 8 8 7 7 7
22 23 24 24 22 21 20 18 20 26 28 28 28 26 26 29 26 21 20 21 19 18 18 20 21 20 21 22 21 19 19 18 18 18 18 18 17 15 14 13 12 11 10 10 10 12 15 16 15 15 13 12 12 11 10 9 9 9 8 9 10 9 8 8 8 8 8 8 7 7 7 7 8 8 8 8 8 8 8 8 8 8 8 8 8
23 24 24 23 21 19 19 19 21 25 28 29 29 29 30 31 29 24 22 22 20 18 18 20 19 15 15 17 17 17 18 20 20 19 18 17 16 15 14 13 12 12 12 11 11 11 12 13 14 13 12 11 11 10 10 9 8 8 9 9 10 10 9 8 8 8 8 8 8 8 7 7 8 8 8 8 8 8 7 8 8 8 8 7 7
25 25 23 22 21 22 21 20 23 25 27 29 30 31 33 34 32 27 22 20 18 17 17 19 20 17 15 15 15 15 16 18 19 19 17 16 16 16 15 13 13 13 13 13 13 13 13 13 12 12 10 10 10 10 9 8 8 8 8 9 10 10 9 8 8 8 8 9 8 8 8 9 9 9 9 9 9 9 8 9 9 8 8 7 7
28 27 26 25 25 26 24 24 26 28 31 34 34 35 33 32 30 24 20 18 16 16 15 16 20 23 21 19 19 19 17 16 17 16 15 15 16 16 15 14 14 14 15 15 14 15 16 14 13 13 11 10 10 10 9 8 8 8 9 9 9 9 9 8 8 9 9 8 8 8 9 10 10 9 9 9 9 9 9 10 9 9 8 7 6
32 32 31 30 29 29 28 28 30 32 35 37 35 32 30 29 24 19 17 18 16 16 16 16 19 23 23 22 21 22 20 17 16 15 13 13 15 16 15 15 15 16 16 16 15 16 17 15 14 14 12 10 9 9 9 9 9 9 9 9 8 8 8 8 8 8 7 7 7 8 8 9 9 9 9 9 10 10 10 10 9 9 8 7 6
34 34 34 32 30 29 27 28 30 32 33 33 32 30 29 26 20 16 17 18 17 18 18 18 19 20 21 21 20 21 21 19 16 15 12 12 14 15 15 15 16 16 16 16 16 17 17 16 16 15 12 10 9 10 10 11 10 10 9 8 7 8 7 6 6 5 5 6 6 7 8 9 9 9 9 10 10 11 10 10 10 9 9 7 7
33 34 33 31 31 30 29 30 30 30 29 28 28 29 30 27 21 18 20 20 19 20 20 20 20 18 20 20 18 18 19 18 17 15 13 12 13 14 15 15 16 17 16 17 17 17 17 17 16 14 11 10 9 10 12 12 11 11 9 9 8 8 7 6 5 5 5 6 7 7 8 9 10 10 10 10 11 11 10 10 10 10 9 8 8
32 32 31 31 30 30 30 30 31 30 28 26 27 28 28 27 24 22 23 24 23 23 22 22 22 21 21 21 19 17 17 17 17 15 13 12 13 13 13 14 15 17 18 18 18 17 16 16 15 13 11 11 10 11 13 12 12 12 10 10 9 8 7 7 7 6 6 6 8 8 9 9 9 10 10 10 11 10 10 11 11 10 9 8 8
31 30 29 28 27 27 28 27 27 27 26 24 25 25 28 29 27 25 26 27 25 24 23 22 22 20 19 20 18 16 14 15 15 13 12 12 12 12 12 13 15 17 19 19 17 16 16 15 14 13 12 12 11 12 13 13 12 12 11 10 10 9 8 8 8 8 8 7 8 9 9 8 9 10 10 10 9 9 10 10 10 10 9 9 8
28 28 27 26 25 25 25 23 20 20 22 23 23 23 28 29 26 25 26 26 25 24 23 23 20 19 20 21 19 17 15 13 13 11 9 10 11 12 12 13 15 16 17 17 16 16 16 16 16 15 15 14 13 13 14 13 13 13 12 11 10 10 10 9 9 10 9 8 8 8 9 9 9 9 9 9 9 10 10 10 10 10 9 8 9
27 27 25 24 25 26 23 18 14 11 12 17 20 22 26 27 25 25 25 24 23 23 23 23 22 22 24 20 15 15 16 14 12 9 7 7 10 11 13 13 13 13 14 16 17 17 17 18 18 18 18 16 14 14 15 14 15 14 13 12 11 11 11 10 11 11 10 8 8 8 9 9 10 9 9 9 9 10 10 11 11 11 10 9 10
26 26 25 23 23 22 19 15 13 8 3 3 7 11 18 21 21 21 21 20 20 21 21 22 23 24 24 20 15 15 15 14 13 10 7 7 8 10 12 13 11 10 12 15 18 18 18 20 20 19 19 17 16 15 16 15 16 16 15 13 12 12 12 12 12 12 11 9 8 9 9 10 10 10 10 10 10 10 10 12 13 13 12 11 12
20 20 23 22 20 18 17 16 14 9 3 1 3 5 8 12 13 15 17 16 17 18 19 21 21 21 20 20 19 18 16 13 13 11 9 7 8 9 11 11 11 11 13 15 17 18 19 22 22 21 19 17 16 16 16 16 16 16 16 15 14 14 13 13 13 13 12 10 9 10 11 11 12 12 12 11 11 11 11 12 13 14 13 12 13
15 15 17 18 17 16 15 14 11 7 5 5 8 9 9 10 11 13 14 14 15 17 18 19 19 18 17 18 18 16 15 14 13 12 10 9 9 10 12 12 12 13 14 15 16 17 19 20 20 19 18 17 16 16 17 17 17 17 16 16 15 15 15 14 14 14 14 12 11 12 13 13 14 15 14 14 13 12 13 15 16 15 13 12 14
14 13 12 13 15 16 15 13 11 11 11 11 12 13 12 12 13 13 12 12 13 14 16 17 18 18 18 19 18 15 13 13 13 13 12 11 11 12 13 13 13 13 15 16 16 16 17 17 17 16 16 16 16 16 16 16 17 17 17 16 16 16 15 15 16 16 16 15 14 14 14 15 16 16 16 16 15 14 14 16 18 18 16 14 14
13 13 11 12 14 15 16 14 13 14 15 14 14 15 14 14 15 15 16 17 16 15 16 15 16 18 18 19 19 16 14 14 15 14 13 13 13 13 13 13 14 14 16 16 15 16 17 17 16 15 15 16 16 16 16 16 17 17 17 17 17 16 16 16 16 17 17 17 17 16 16 16 17 18 18 17 17 16 16 17 19 19 18 17 15
14 14 13 13 13 14 14 15 15 16 15 14 14 15 16 17 16 15 16 18 19 18 17 15 14 16 18 19 19 17 15 15 15 15 15 15 14 13 14 13 14 15 16 16 16 16 17 17 16 16 16 16 16 16 16 15 16 16 17 17 17 17 17 17 17 17 17 17 18 17 17 17 19 19 19 19 19 19 19 20 20 21 21 19 17
13 14 13 12 12 11 12 13 14 15 14 14 15 16 17 18 17 15 14 17 19 18 16 15 13 14 18 19 19 18 16 15 15 15 15 15 14 13 14 13 14 16 16 16 17 18 17 17 17 16 16 16 15 15 15 16 16 17 17 18 18 18 17 17 18 17 17 17 17 18 18 18 19 20 20 20 20 20 20 20 20 22 23 23 21
11 11 10 9 9 9 10 12 13 13 13 14 15 16 17 17 16 15 14 15 17 16 14 13 12 12 16 20 20 19 17 16 16 15 14 14 13 13 13 15 16 17 17 17 17 18 17 17 17 17 17 16 16 16 17 17 18 18 18 18 18 18 18 18 18 17 16 16 17 19 20 20 20 21 22 22 21 20 20 19 19 19 21 24 25
9 9 8 7 6 6 7 9 10 11 12 13 14 15 15 16 15 15 14 15 15 13 11 11 10 11 14 18 19 18 16 16 17 17 16 15 14 14 15 16 18 18 18 18 18 18 17 17 18 17 17 17 17 17 17 18 18 18 18 18 18 18 18 18 17 16 16 16 18 20 20 21 21 21 22 22 21 21 20 21 20 18 18 21 23
9 8 7 7 7 7 8 8 9 10 11 12 13 13 13 14 14 14 14 14 14 12 10 10 10 11 13 16 17 17 17 17 18 18 18 16 16 16 16 18 19 18 18 18 18 19 19 19 19 18 18 17 17 18 18 18 17 17 17 17 18 19 18 18 17 17 17 18 20 21 21 21 21 20 19 18 18 19 19 19 20 18 17 18 20
10 9 8 8 8 9 10 10 9 10 11 11 12 12 12 13 14 14 13 14 14 11 9 9 11 13 13 15 17 18 19 19 20 20 19 16 16 17 18 18 19 18 17 17 18 19 19 19 19 18 17 17 18 18 19 19 18 17 17 18 19 19 18 18 19 20 20 20 21 21 21 20 20 19 18 17 18 18 17 16 16 17 18 18 19
11 10 9 8 9 10 10 10 10 10 11 12 13 13 12 12 14 14 13 13 12 10 8 8 11 14 14 15 17 17 17 19 20 20 19 17 17 19 19 20 19 18 16 17 17 18 18 17 17 18 18 18 19 19 19 20 19 18 19 19 20 20 19 20 21 21 21 21 21 22 21 21 21 19 18 18 18 18 17 16 16 17 19 19 19
12 11 10 10 10 10 10 11 11 11 12 14 14 14 13 13 13 13 12 10 9 9 7 6 8 10 12 14 15 15 16 18 18 18 19 18 19 20 21 21 21 19 17 17 17 16 16 16 17 18 19 19 19 20 20 20 19 20 21 20 20 21 20 21 22 22 22 22 22 22 22 21 21 19 18 18 19 19 19 19 20 21 21 20 20
14 13 12 12 12 12 12 11 12 12 14 15 15 14 13 12 12 12 11 9 8 9 8 7 7 8 9 12 14 14 16 18 17 17 17 18 19 21 22 23 23 20 18 17 16 14 13 14 15 16 18 19 19 19 19 20 21 22 23 22 22 22 22 22 23 23 23 23 22 22 22 22 22 21 19 18 18 19 21 21 22 22 22 22 21
16 15 15 14 14 14 14 13 13 14 15 15 16 15 13 13 12 12 12 11 9 9 9 8 8 8 9 11 12 12 14 15 15 16 17 17 17 18 20 22 23 21 18 16 15 13 12 13 13 14 16 18 19 19 19 20 21 22 23 23 22 23 23 23 23 23 23 23 23 23 23 23 24 23 22 21 21 21 22 23 23 23 23 23 23
18 17 17 17 17 17 16 16 15 16 16 17 17 16 14 13 13 12 12 11 10 10 10 9 9 9 10 11 12 12 11 12 14 16 18 18 18 18 18 19 21 21 20 18 16 16 17 17 17 17 19 21 22 22 21 21 21 23 24 23 22 24 24 24 24 24 25 25 25 25 25 24 25 25 25 25 24 24 24 25 25 25 25 25 25
20 20 20 20 19 19 18 18 18 18 18 18 18 18 16 14 14 13 12 12 11 10 10 11 10 9 10 11 13 14 14 14 15 15 15 16 17 18 18 18 19 20 20 20 19 19 20 20 20 19 20 21 22 23 23 23 23 24 26 26 26 27 27 25 24 25 26 26 26 25 25 26 27 28 28 27 27 27 28 28 28 28 28 28 28
23 23 23 23 22 21 20 19 19 19 18 19 19 19 18 16 15 15 14 13 13 13 12 13 13 12 12 11 12 13 15 16 17 17 15 16 18 20 19 18 18 18 19 20 20 21 21 21 20 20 20 21 22 22 23 24 25 26 27 29 29 28 28 29 28 27 26 26 25 25 26 28 29 30 30 29 30 30 30 31 31 31 32 33 33
25 25 25 25 24 23 22 21 20 19 18 19 19 19 19 18 17 17 16 16 16 16 16 16 16 16 15 14 13 14 16 18 19 19 19 19 20 22 21 20 19 18 19 20 21 21 21 22 22 22 21 22 23 23 24 25 27 27 27 28 29 29 30 30 29 26 25 24 25 27 28 29 30 30 31 31 32 32 32 33 33 34 35 35 36
26 26 27 27 26 26 25 23 22 20 19 20 20 20 20 20 19 19 19 18 17 18 18 18 17 17 17 15 13 12 14 16 18 19 20 21 21 21 21 21 21 21 20 20 21 21 22 22 23 23 22 23 23 24 25 26 26 25 24 24 25 27 27 27 26 25 25 25 26 26 27 28 29 30 31 32 33 33 34 34 35 36 36 37 38
28 28 28 28 28 27 27 27 25 22 21 21 21 21 21 22 21 21 21 20 20 20 19 19 18 18 18 17 16 15 15 15 17 17 18 19 20 19 19 19 20 20 20 20 19 20 20 22 23 23 23 24 24 24 24 23 22 21 21 21 23 24 24 25 25 25 24 24 25 26 27 29 30 31 33 33 34 35 37 38 39 40 40 42 43
29 29 29 29 29 29 29 29 28 26 24 24 23 22 23 23 23 23 23 23 22 22 22 22 21 20 20 20 22 23 23 22 22 22 22 22 21 20 19 19 19 19 19 19 19 20 21 22 22 22 23 23 24 23 21 19 19 19 20 22 23 24 25 25 24 24 25 26 27 29 30 32 33 35 36 37 38 39 40 41 41 42 43 43 44
29 30 30 30 30 31 31 32 31 30 28 27 26 24 24 24 24 24 23 23 23 23 23 23 23 23 22 23 23 24 24 23 24 25 25 26 25 25 24 25 24 24 23 22 22 23 23 23 23 23 22 22 23 22 21 20 20 21 23 24 25 25 26 27 27 28 29 31 32 34 35 36 36 37 38 39 40 41 41 42 43 44 45 46 47
29 29 29 30 31 31 32 32 33 32 31 29 28 25 25 25 24 23 22 21 21 21 22 23 24 24 24 24 25 25 25 25 25 26 26 26 27 27 28 28 28 28 27 26 26 26 26 26 26 25 25 25 24 24 24 25 26 26 27 27 28 29 30 31 33 34 35 35 36 37 37 37 38 39 40 40 41 42 43 44 45 47 48 49 50
28 27 26 26 27 28 29 31 32 32 32 31 29 27 25 24 23 22 21 20 19 20 20 21 23 24 24 24 25 26 26 27 27 27 27 28 28 29 29 29 29 29 29 28 28 28 28 29 29 29 29 30 30 30 30 31 31 31 31 31 32 33 34 35 36 37 37 37 38 38 39 39 40 41 42 42 43 43 44 46 47 49 50 52 53
29 28 26 25 24 25 26 28 29 31 32 31 31 29 27 24 23 23 22 20 19 19 20 20 20 19 19 21 23 24 26 27 28 28 28 28 29 28 28 27 28 28 28 28 28 28 29 30 31 32 33 34 34 34 34 34 34 34 34 34 34 35 36 36 37 37 38 38 39 40 41 41 42 43 43 44 44 45 47 48 50 52 54 55 56
30 31 30 29 29 28 27 26 26 26 28 28 30 30 29 28 28 27 25 24 21 20 20 21 21 21 20 20 21 23 23 25 27 28 28 27 27 27 26 26 27 28 28 29 29 29 30 31 32 33 33 34 35 35 35 35 35 35 35 35 35 36 36 36 37 38 38 39 40 41 41 42 43 44 45 46 48 49 51 53 54 56 58 60 61
29 30 30 30 29 28 27 26 25 24 25 26 27 29 30 31 31 29 29 29 27 23 21 21 23 24 24 22 22 23 23 23 24 25 25 26 26 26 27 27 28 28 28 29 30 30 31 32 33 33 34 35 35 34 34 34 34 34 35 35 36 36 36 37 37 37 38 39 40 41 43 44 45 47 49 51 52 54 55 56 58 59 61 63 65
25 25 26 26 26 26 26 26 26 26 26 27 28 29 29 29 29 29 30 30 28 25 24 24 25 26 27 28 28 28 28 28 28 28 29 30 30 29 30 30 31 31 31 31 32 32 33 34 35 35 35 35 35 34 33 33 33 33 34 34 35 36 36 36 37 38 39 40 42 44 45 47 48 50 52 54 55 56 57 58 60 61 62 64 66
20 21 21 23 25 27 28 28 28 28 28 28 29 30 29 28 28 28 29 29 28 26 27 28 29 29 29 30 31 30 30 31 31 31 30 30 30 30 30 30 31 32 32 33 33 33 33 34 34 35 35 35 35 35 34 34 34 33 33 33 34 34 35 36 38 39 41 43 44 46 48 49 50 52 53 55 57 58 60 61 63 64 66 67 69
20 21 22 24 27 28 28 29 28 28 29 29 29 30 30 29 28 27 26 27 28 29 30 31 32 32 31 30 29 28 28 28 28 28 28 28 28 28 29 29 29 30 31 32 33 33 33 34 34 34 34 34 35 35 35 34 34 34 34 34 35 36 37 39 40 42 43 45 46 48 49 51 52 54 56 57 59 61 62 64 65 67 68 69 70
Wind_Direction
279 283 278 281 277 256 262 276 276 272 262 244 240 247 255 260 257 248 248 249 244 241 241 239 232 227 233 241 236 236 238 232 234 235 233 234 235 236 236 237 242 247 254 254 250 252 251 251 237 216 220 244 247 230 225 232 236 236 242 238 221 226 236 232 231 240 242 234 233 242 248 254 271 281 270 258 252 216 188 181 149 124 115 110 104
278 279 277 277 267 252 265 277 276 272 260 243 247 248 233 234 243 239 239 241 240 239 242 250 248 232 238 270 260 244 244 237 232 233 235 238 239 241 243 246 249 253 259 258 253 249 245 241 220 207 231 254 242 226 223 231 235 233 239 237 221 228 240 239 234 239 240 236 238 246 250 249 253 262 257 239 231 222 202 181 168 149 134 132 121
279 276 272 269 262 259 267 271 270 267 255 241 252 254 222 232 246 239 241 241 242 246 245 249 250 244 252 269 272 246 237 237 233 235 243 250 248 247 250 255 258 260 260 258 254 250 245 229 214 222 251 251 234 224 221 225 229 234 235 227 223 233 245 251 251 250 251 251 251 250 246 242 243 244 242 233 219 211 209 204 198 174 152 150 146
276 274 268 264 261 261 263 263 263 261 249 237 256 278 283 278 272 257 256 255 259 264 261 258 259 261 264 267 270 265 254 253 250 247 253 259 258 255 255 258 262 263 260 260 263 258 240 221 222 243 251 237 226 223 219 219 223 230 230 229 236 242 248 256 260 260 261 260 259 253 237 228 232 236 234 234 226 219 221 221 218 200 175 175 192
268 268 266 263 261 259 256 257 260 260 248 234 249 272 286 294 291 278 270 267 274 279 274 271 268 266 268 270 273 273 272 274 272 272 274 272 268 264 260 258 260 263 265 269 270 258 232 225 235 242 237 229 227 225 219 217 220 225 226 230 240 244 249 257 262 262 261 261 258 250 237 229 230 234 235 238 233 228 234 235 234 226 206 213 225
266 264 260 257 259 258 253 252 254 255 249 240 246 261 275 287 284 273 272 270 270 274 275 272 268 264 265 269 275 277 279 280 277 277 279 276 271 268 265 263 261 261 264 266 262 253 242 239 237 234 229 228 230 228 225 224 227 234 237 240 243 248 254 259 262 261 259 259 257 248 241 237 233 232 235 239 237 235 242 247 249 246 234 228 235
270 267 258 253 256 258 252 247 250 251 250 247 250 260 270 276 273 266 273 278 271 268 271 269 265 263 264 267 273 277 278 277 274 273 272 270 269 268 267 265 263 263 265 264 258 253 250 244 235 230 227 226 229 232 234 235 236 245 248 241 246 255 257 255 254 255 255 255 255 252 246 242 236 233 234 236 239 239 243 251 254 258 258 249 247
272 270 267 261 257 256 252 245 248 253 254 253 255 262 265 263 264 265 269 276 275 270 269 268 266 264 262 263 267 269 270 268 267 266 265 264 262 262 264 263 264 266 268 265 257 249 245 243 238 231 226 223 225 234 243 247 244 248 246 236 246 256 247 242 245 247 251 251 253 253 249 244 240 236 236 237 239 241 246 252 254 259 263 259 258
278 277 281 278 267 262 261 255 255 260 264 263 263 263 256 254 258 261 257 260 268 270 268 265 264 264 262 261 264 267 266 262 260 260 261 260 256 254 255 258 262 264 263 260 254 247 242 238 236 233 228 223 221 226 237 244 243 244 244 241 249 248 230 229 239 243 247 248 248 248 245 245 244 243 244 244 245 247 250 253 256 258 257 257 263
282 281 285 286 280 275 273 267 262 266 270 270 269 263 253 250 253 250 246 251 261 266 266 263 261 264 264 261 261 265 265 261 257 257 259 258 254 254 254 255 259 259 253 249 254 258 248 236 232 230 224 221 222 225 230 234 234 235 235 236 239 234 222 223 235 242 247 248 248 248 247 248 250 251 251 252 253 254 255 258 260 260 260 263 266
283 283 283 282 281 277 272 266 261 264 268 267 266 263 256 250 248 245 243 248 254 256 260 260 254 256 266 263 258 259 261 259 256 254 258 259 256 257 258 258 258 254 245 243 251 254 242 235 233 223 214 220 224 226 229 227 226 225 220 221 225 226 221 223 233 243 249 253 255 257 256 254 256 256 255 256 256 256 260 263 262 263 266 270 270
283 284 280 275 271 268 266 261 259 260 261 259 255 255 254 251 248 245 241 242 244 246 253 256 245 243 259 263 254 251 255 258 255 251 254 259 260 258 258 260 258 252 246 244 249 245 231 230 232 220 217 228 226 225 225 219 216 215 211 214 220 225 226 229 235 242 248 253 258 261 261 258 256 255 256 258 260 262 267 271 271 269 271 275 274
278 279 275 270 267 265 261 255 255 256 255 253 249 247 248 250 251 247 236 232 237 242 248 252 244 241 250 257 253 248 249 253 251 247 249 254 257 258 255 256 253 249 246 244 244 240 231 231 236 234 235 234 224 222 220 213 210 209 209 214 219 227 232 233 235 240 244 249 257 262 264 263 262 262 261 261 263 267 273 277 276 271 272 274 270
274 276 275 275 273 270 263 253 250 249 250 251 248 246 247 247 249 245 230 224 231 241 244 246 244 240 243 249 250 246 242 244 244 241 247 253 255 256 252 252 252 247 243 241 237 232 231 238 241 237 235 229 222 217 212 211 212 211 212 214 217 224 229 232 236 240 246 251 254 259 264 268 272 271 266 263 264 268 272 274 271 268 272 272 267
272 275 277 277 274 272 270 262 253 246 246 248 244 243 242 239 237 234 230 226 230 239 241 241 241 242 246 246 246 245 239 238 241 240 245 254 255 255 252 251 252 247 243 240 234 230 234 239 235 229 227 226 224 218 212 212 213 212 209 204 206 214 219 224 233 241 256 263 262 262 264 270 277 277 273 271 271 273 274 271 268 270 274 271 269
270 273 275 275 274 274 273 270 265 258 253 249 242 238 236 234 230 229 236 235 231 235 238 238 237 242 255 257 251 249 242 236 240 242 244 253 257 258 255 252 251 247 245 240 234 232 235 234 228 224 223 225 224 222 218 215 213 210 202 193 198 208 216 225 238 252 266 269 270 272 269 270 276 279 277 274 274 277 277 274 273 274 274 271 269
266 270 272 273 275 277 275 273 271 268 264 255 246 238 232 230 226 222 231 235 231 234 235 237 239 238 253 265 260 254 250 242 242 244 246 252 258 260 257 253 250 246 243 239 233 231 232 230 227 225 224 225 223 223 222 217 213 211 203 201 208 216 226 237 246 255 259 259 265 270 269 270 274 277 275 272 274 278 278 277 277 276 275 274 271
265 269 271 272 275 278 278 277 274 269 266 257 247 237 227 225 222 217 224 231 233 237 239 246 254 248 254 270 269 263 255 244 243 246 251 257 260 258 256 254 250 245 239 235 231 230 229 229 230 230 229 228 222 221 222 219 215 214 211 215 223 231 241 249 251 253 253 253 257 261 265 268 270 271 272 274 277 277 275 274 275 276 277 276 272
263 265 267 269 274 277 279 283 281 273 263 251 243 234 225 222 221 218 223 230 236 242 248 257 265 265 268 267 258 255 252 241 240 245 252 259 258 254 255 255 248 240 234 229 227 230 231 233 235 234 233 230 223 221 222 220 219 220 221 228 236 243 251 256 256 256 254 251 252 256 259 260 262 267 272 276 278 276 276 276 275 276 276 274 271
261 260 262 265 270 272 276 285 290 283 265 247 239 235 226 221 221 223 226 233 242 251 258 262 264 269 271 261 242 246 248 237 233 235 245 259 258 256 254 249 241 235 234 235 235 234 231 232 236 236 233 229 223 222 222 222 224 226 228 237 247 253 255 256 257 257 254 249 248 252 256 257 260 265 268 271 275 278 283 284 283 282 279 275 271
260 256 256 260 264 265 270 286 297 305 322 230 233 238 230 223 223 228 232 237 247 256 261 265 268 272 270 262 255 255 250 238 231 229 238 256 259 256 244 234 234 242 247 246 243 237 230 230 234 236 234 228 222 223 223 222 226 229 233 241 249 253 254 253 251 251 250 250 254 258 259 260 261 264 267 270 273 277 281 284 285 285 283 279 276
259 250 247 250 255 258 261 279 300 318 358 337 281 281 252 242 243 244 245 246 253 262 267 270 275 274 263 253 250 250 250 246 236 230 235 240 242 243 234 231 242 252 255 251 245 237 232 233 235 234 231 225 222 223 223 223 226 229 234 241 247 251 252 251 248 245 245 251 263 269 269 268 266 266 268 268 269 270 273 275 276 277 278 280 279
254 248 248 249 255 262 263 270 284 296 307 297 290 292 285 283 282 266 256 257 260 267 271 272 271 267 255 244 243 247 252 249 238 234 233 225 224 230 234 241 248 252 255 255 249 242 237 235 231 224 219 218 219 221 222 224 227 230 235 240 246 251 252 252 249 246 246 254 266 273 274 273 271 268 268 267 266 266 269 270 270 270 271 273 273
254 257 264 261 263 272 277 280 280 280 290 298 298 297 292 289 288 283 286 296 293 285 283 275 262 254 250 246 244 246 252 247 238 235 228 219 221 226 231 239 244 247 252 253 252 246 235 223 215 210 210 214 218 221 224 226 228 230 234 238 245 250 253 254 252 250 251 258 268 273 274 272 271 270 269 269 268 267 267 269 272 274 273 268 266
263 264 271 271 271 279 286 292 297 296 298 300 299 300 297 292 292 296 306 315 311 303 298 288 265 250 247 248 245 246 253 246 234 230 228 225 226 227 228 232 235 241 246 248 250 245 230 215 208 209 213 216 219 223 227 228 229 230 234 240 246 250 252 254 254 254 255 260 267 272 272 272 272 273 274 275 275 273 269 268 270 273 272 270 269
269 267 271 274 278 284 287 290 296 298 299 299 300 300 298 296 299 304 310 312 308 301 295 290 277 255 243 243 243 248 255 245 228 226 228 225 224 223 223 225 229 236 242 243 243 240 232 223 216 215 216 218 221 226 228 230 232 235 241 247 251 253 254 255 256 257 260 264 269 272 273 275 277 279 281 281 280 278 276 274 272 273 272 271 270
268 268 267 267 271 276 279 281 286 289 291 294 297 298 295 294 298 303 310 314 309 300 286 279 276 255 238 237 240 246 251 242 227 223 220 216 216 218 218 221 227 234 239 240 239 239 237 231 224 220 220 222 224 228 232 236 240 246 251 254 255 255 256 257 259 261 263 266 269 271 273 276 278 279 280 280 280 280 281 280 279 280 279 278 275
268 270 265 259 259 264 268 272 276 278 282 286 288 289 289 293 297 298 305 314 308 294 279 269 264 250 239 238 239 241 245 240 227 219 214 213 217 221 222 221 224 229 233 234 236 238 238 235 232 229 229 231 232 234 237 242 246 251 253 255 256 257 258 259 260 261 263 266 269 271 272 273 274 275 275 275 276 277 277 278 278 279 281 281 280
265 270 272 263 253 254 262 269 272 270 270 272 276 281 285 291 295 291 294 307 304 290 278 266 256 249 244 240 235 234 238 237 227 220 220 221 223 225 223 219 220 224 227 229 233 236 237 237 238 237 237 237 238 240 243 246 249 251 252 253 255 256 258 260 260 262 264 266 267 269 271 273 274 275 276 278 278 277 276 276 275 274 276 279 280
261 264 269 264 254 253 257 262 266 265 265 269 274 279 283 287 290 286 287 297 300 297 291 275 259 253 248 239 232 233 239 237 228 223 223 223 225 225 221 218 219 223 227 231 234 235 236 238 240 242 243 244 244 246 249 250 250 251 253 254 255 257 259 261 261 261 263 264 265 267 270 271 271 271 274 277 276 277 277 277 279 279 279 280 280
256 257 258 256 250 249 251 255 257 259 266 272 275 279 282 284 284 283 283 290 295 297 293 274 255 251 247 236 230 236 241 236 228 225 224 223 226 227 223 219 219 224 231 236 237 238 237 237 239 242 244 246 248 249 250 251 251 252 254 255 256 258 259 259 260 262 264 266 268 271 273 271 269 269 272 272 273 276 278 279 283 286 286 285 283
253 255 255 254 251 250 252 254 254 257 264 269 272 275 277 279 282 283 284 288 292 291 285 266 246 239 235 230 230 236 240 235 228 227 227 226 225 225 224 223 222 224 231 237 238 238 237 236 237 240 243 247 250 251 251 252 254 255 257 257 257 257 256 257 260 263 265 267 269 271 272 271 269 269 270 269 270 274 276 277 279 283 285 287 287
251 251 251 251 251 251 252 253 253 254 257 261 266 268 270 274 280 284 286 291 295 289 284 273 252 236 227 225 224 224 229 232 229 229 233 231 226 226 227 226 225 225 230 236 236 233 232 233 235 239 243 247 251 253 253 253 256 259 261 260 258 257 257 258 261 264 265 266 267 268 270 270 269 268 265 265 267 270 272 274 276 277 278 281 283
250 249 248 249 250 251 253 253 252 252 254 257 262 265 266 270 276 281 283 285 285 282 279 276 267 253 237 232 229 223 223 226 228 231 234 232 230 231 232 230 227 226 231 236 235 232 231 231 234 241 248 251 253 254 252 251 253 257 261 263 263 260 258 258 261 264 265 266 266 266 267 268 267 266 264 264 267 269 271 274 275 277 277 279 280
249 251 252 251 251 252 253 253 253 252 252 253 257 261 264 269 273 278 282 282 281 281 280 271 262 257 249 241 239 233 225 223 228 231 228 227 228 230 232 230 224 222 226 232 237 244 246 243 243 247 253 256 258 258 258 256 255 258 262 265 264 261 259 259 262 263 263 262 261 260 260 262 264 267 269 270 271 271 272 275 277 280 281 281 280
248 252 254 254 253 253 253 253 253 253 253 253 255 258 261 266 272 276 280 283 281 278 275 269 261 255 252 247 243 240 233 230 235 235 230 228 229 228 229 229 225 223 227 233 243 253 256 253 251 248 247 250 251 252 253 253 255 261 265 264 260 260 261 259 260 261 261 259 257 256 257 258 262 267 270 273 274 275 276 278 280 283 284 284 284
249 252 255 256 256 255 254 253 252 252 253 255 256 258 259 262 268 272 275 275 273 269 266 266 263 254 250 249 242 236 234 232 234 239 239 236 237 236 234 231 228 228 229 231 238 244 246 247 247 244 243 246 247 246 245 241 241 250 257 254 252 258 262 262 259 259 259 258 257 256 258 259 261 264 267 272 276 279 281 282 283 285 286 286 286
249 253 256 258 259 259 258 257 256 255 256 256 257 259 260 261 264 267 268 266 265 264 262 261 262 259 255 254 246 237 232 229 230 234 232 225 227 233 235 232 229 226 225 228 233 238 242 245 246 244 244 246 248 248 247 244 242 243 245 245 244 248 256 261 262 260 259 258 257 257 257 259 261 265 270 274 277 279 281 282 283 284 285 286 286
249 253 257 259 261 262 262 261 259 258 257 258 259 260 260 260 261 261 262 261 260 261 261 259 260 258 256 256 256 251 244 239 235 232 227 221 224 232 238 241 241 238 236 237 239 241 244 247 249 250 250 251 252 252 251 250 250 250 249 249 247 246 249 255 259 259 259 259 258 258 259 261 264 268 272 274 276 278 279 281 282 283 283 284 284
248 251 256 258 260 262 263 263 262 261 260 259 261 262 262 262 261 260 260 261 261 260 259 257 255 254 253 255 258 253 243 239 237 235 233 234 236 239 243 246 248 247 245 244 243 243 245 248 252 255 257 258 257 257 255 254 255 256 256 254 249 246 247 251 254 256 258 260 261 262 263 265 267 269 270 272 275 277 279 281 283 283 283 283 283
249 251 253 256 258 260 262 263 264 262 260 260 261 262 263 263 264 263 261 260 258 258 258 256 253 250 248 246 245 244 245 248 249 248 245 242 241 241 244 246 247 247 248 248 249 250 251 254 257 258 259 260 259 258 257 256 255 255 253 250 247 247 249 253 256 259 261 264 266 268 269 270 272 273 275 276 278 279 281 282 282 282 282 283 283
250 251 253 255 257 259 261 263 264 262 262 263 264 262 261 261 261 265 266 265 261 259 259 258 256 253 251 248 246 249 255 260 260 257 254 251 248 249 251 251 251 252 254 256 256 256 257 258 260 259 257 256 255 254 254 254 253 253 253 253 253 254 255 257 260 263 266 267 269 271 273 275 277 278 279 280 280 280 281 281 282 282 282 282 283
249 252 253 255 257 259 261 263 264 265 266 267 268 267 266 264 260 258 260 261 261 260 260 260 259 257 254 252 251 252 256 258 257 254 253 252 253 254 255 255 257 258 258 258 258 257 258 258 258 257 253 248 246 247 249 251 253 256 259 260 260 260 260 261 263 266 268 269 271 273 275 276 278 278 279 280 280 281 282 283 284 284 284 284 283
250 253 255 256 258 261 263 265 266 268 268 268 269 270 270 271 269 264 261 259 258 260 263 265 264 263 260 256 255 255 254 254 255 255 252 249 249 249 250 253 255 256 255 255 254 254 255 255 254 252 248 244 243 245 249 254 257 261 263 264 264 264 264 265 267 269 271 272 273 274 275 276 277 278 279 280 281 283 283 284 284 284 284 284 284
251 254 257 259 260 263 265 266 266 266 266 266 267 268 269 270 270 268 266 266 265 264 265 265 265 266 266 262 259 257 255 253 252 253 252 250 249 250 250 251 253 255 255 254 254 254 253 251 248 246 245 246 248 251 255 258 260 262 263 263 263 264 265 267 269 271 273 274 274 275 276 277 278 279 280 281 282 283 283 284 284 284 284 285 286
249 250 253 257 261 266 270 270 266 265 265 265 265 267 268 265 260 255 253 258 265 267 264 261 258 257 259 260 259 257 256 255 253 252 250 249 249 249 249 249 251 253 254 256 257 257 255 252 249 247 249 251 253 254 256 258 259 260 261 262 263 265 267 269 270 271 272 274 275 276 278 279 280 282 283 284 285 285 286 286 287 287 287 288 288
248 249 251 254 259 265 268 267 264 264 265 265 264 264 263 260 257 256 254 257 265 268 264 261 258 255 257 259 259 256 256 258 256 251 247 247 249 251 253 255 256 257 259 259 259 258 257 255 253 252 253 254 255 257 258 259 260 261 262 263 264 265 267 268 270 271 273 275 277 279 281 282 284 285 286 287 287 288 289 290 290 291 290 290 289
250 251 253 255 258 261 261 260 260 262 263 262 260 258 258 258 259 260 259 259 260 259 257 255 254 255 258 262 261 258 256 256 254 250 249 255 259 261 262 264 265 265 265 264 263 261 259 257 255 254 255 256 258 260 260 261 262 264 265 267 268 268 270 272 273 275 277 279 281 283 284 286 287 287 288 288 288 289 289 290 291 291 291 291 290
253 254 254 253 253 253 254 255 257 259 261 263 262 260 259 258 257 257 257 257 256 253 252 250 249 252 258 262 264 262 257 253 252 254 257 261 263 263 263 263 263 264 264 263 263 263 262 261 260 259 258 258 258 258 259 261 263 266 267 269 270 272 273 275 277 279 281 283 285 286 288 288 289 289 289 289 289 290 290 290 290 291 291 291 292
250 250 249 247 245 245 247 250 252 253 254 257 261 264 264 263 260 257 257 256 253 250 249 247 247 248 250 253 255 255 253 252 253 255 258 261 263 263 263 263 262 262 261 261 261 262 262 262 261 260 260 260 260 262 264 266 268 270 271 271 272 274 276 278 280 283 285 286 287 288 289 289 290 290 290 290 290 290 290 290 289 289 289 289 289
240 240 241 241 241 242 243 244 245 245 245 246 250 254 258 260 260 258 256 255 254 251 248 247 246 245 243 242 242 242 243 245 247 249 250 252 254 256 258 259 259 260 259 260 260 261 262 263 263 263 265 266 268 269 271 273 275 276 277 278 279 280 282 283 285 286 288 289 290 290 291 291 291 291 291 291 290 289 289 288 287 287 286 286 286
Height
5786 5787 5787 5788 5788 5787 5786 5785 5785 5783 5783 5786 5787 5787 5789 5790 5790 5790 5790 5790 5790 5792 5792 5791 5794 5795 5794 5794 5794 5795 5796 5797 5799 5800 5802 5803 5804 5805 5806 5808 5809 5809 5810 5811 5812 5812 5812 5812 5812 5813 5814 5814 5814 5813 5814 5814 5815 5815 5815 5816 5816 5817 5816 5816 5817 5817 5817 5818 5818 5818 5819 5819 5819 5820 5820 5821 5822 5823 5823 5823 5824 5824 5823 5823 5824
5784 5785 5784 5785 5784 5783 5782 5782 5783 5781 5782 5785 5786 5784 5785 5788 5789 5789 5788 5788 5788 5790 5791 5791 5792 5793 5793 5794 5794 5794 5796 5797 5797 5797 5800 5801 5802 5804 5805 5807 5808 5809 5809 5810 5811 5811 5810 5810 5810 5811 5812 5812 5812 5812 5813 5813 5813 5813 5813 5814 5815 5814 5815 5815 5816 5815 5816 5817 5817 5817 5817 5818 5818 5819 5820 5820 5821 5822 5822 5822 5822 5823 5823 5823 5823
5781 5782 5782 5781 5781 5780 5780 5781 5781 5780 5781 5784 5785 5785 5786 5786 5787 5788 5788 5787 5787 5788 5789 5789 5791 5792 5792 5793 5794 5795 5795 5795 5795 5796 5799 5800 5801 5802 5804 5805 5806 5807 5807 5808 5809 5809 5808 5808 5809 5810 5810 5811 5811 5811 5812 5812 5812 5812 5812 5813 5813 5813 5813 5814 5814 5814 5814 5815 5815 5816 5816 5817 5818 5819 5819 5819 5820 5821 5821 5821 5821 5822 5822 5822 5822
5778 5778 5779 5778 5777 5778 5778 5779 5779 5778 5780 5783 5785 5786 5787 5786 5786 5788 5789 5788 5787 5787 5787 5789 5791 5792 5792 5792 5794 5795 5795 5796 5796 5797 5798 5798 5799 5800 5801 5803 5804 5804 5805 5806 5807 5806 5806 5807 5808 5809 5809 5810 5810 5811 5811 5811 5811 5811 5811 5812 5812 5812 5812 5812 5813 5813 5813 5813 5813 5814 5814 5816 5817 5818 5819 5819 5819 5820 5820 5820 5820 5821 5821 5821 5822
5776 5776 5776 5774 5773 5775 5776 5776 5777 5778 5779 5781 5782 5783 5784 5785 5785 5787 5788 5788 5787 5786 5787 5789 5790 5791 5793 5793 5793 5794 5795 5795 5796 5796 5796 5796 5796 5798 5799 5800 5801 5802 5803 5804 5804 5805 5805 5806 5807 5808 5808 5809 5809 5810 5810 5810 5811 5810 5810 5811 5811 5811 5811 5810 5811 5811 5812 5812 5812 5813 5813 5814 5816 5817 5818 5818 5818 5819 5819 5819 5820 5820 5820 5820 5821
5773 5774 5773 5771 5770 5771 5773 5774 5775 5776 5777 5780 5781 5780 5781 5782 5784 5785 5786 5786 5786 5786 5786 5787 5788 5789 5791 5792 5792 5793 5793 5794 5795 5795 5795 5795 5795 5796 5797 5798 5799 5800 5801 5802 5803 5803 5804 5805 5806 5806 5807 5807 5808 5808 5809 5809 5809 5809 5809 5809 5809 5809 5809 5809 5810 5810 5810 5811 5811 5812 5812 5813 5814 5816 5816 5817 5817 5818 5818 5818 5819 5819 5820 5820 5820
5768 5769 5769 5768 5768 5769 5771 5773 5773 5774 5775 5777 5779 5779 5779 5780 5782 5784 5784 5783 5783 5784 5784 5785 5785 5786 5788 5789 5790 5791 5792 5793 5794 5794 5794 5794 5794 5795 5795 5796 5797 5798 5799 5800 5801 5802 5803 5804 5804 5805 5805 5805 5806 5806 5806 5807 5807 5807 5808 5808 5807 5807 5808 5808 5808 5809 5810 5810 5810 5811 5811 5812 5813 5814 5815 5816 5816 5816 5817 5817 5817 5818 5818 5819 5819
5765 5765 5765 5766 5767 5766 5768 5771 5772 5771 5772 5774 5776 5777 5777 5777 5780 5783 5783 5781 5781 5781 5782 5782 5783 5784 5785 5786 5787 5788 5790 5791 5792 5792 5792 5793 5793 5793 5794 5794 5795 5796 5797 5798 5799 5800 5801 5802 5803 5804 5803 5803 5804 5804 5804 5805 5806 5806 5806 5806 5806 5806 5807 5807 5808 5808 5809 5809 5809 5810 5810 5811 5811 5812 5813 5814 5815 5815 5815 5816 5816 5816 5817 5817 5817
5764 5764 5763 5764 5765 5765 5766 5770 5770 5769 5770 5771 5773 5775 5775 5774 5777 5780 5781 5779 5779 5779 5780 5780 5780 5780 5782 5783 5784 5785 5786 5787 5789 5789 5790 5790 5791 5791 5792 5793 5793 5794 5795 5796 5796 5797 5798 5800 5802 5803 5802 5802 5802 5802 5802 5803 5804 5804 5804 5804 5805 5805 5806 5807 5807 5808 5808 5808 5808 5809 5809 5810 5810 5811 5812 5813 5814 5814 5814 5814 5814 5815 5815 5815 5816
5762 5762 5762 5761 5762 5763 5765 5767 5768 5768 5768 5769 5770 5771 5771 5771 5773 5775 5777 5777 5777 5777 5777 5776 5776 5778 5779 5779 5780 5781 5782 5784 5785 5785 5786 5787 5788 5789 5789 5791 5792 5793 5794 5794 5795 5795 5796 5798 5799 5800 5800 5799 5800 5800 5801 5802 5802 5802 5803 5803 5804 5804 5805 5806 5806 5807 5807 5807 5807 5808 5808 5809 5809 5810 5811 5812 5812 5812 5812 5813 5813 5813 5814 5814 5814
5758 5758 5758 5758 5759 5761 5762 5764 5765 5765 5765 5766 5766 5766 5767 5767 5768 5771 5774 5775 5775 5775 5774 5774 5774 5775 5776 5777 5777 5778 5779 5780 5781 5782 5783 5784 5785 5786 5787 5788 5789 5790 5791 5792 5793 5793 5794 5796 5797 5797 5797 5797 5797 5799 5799 5800 5800 5800 5801 5802 5802 5803 5804 5805 5805 5806 5806 5806 5806 5807 5807 5808 5808 5809 5809 5810 5810 5811 5811 5811 5812 5812 5812 5813 5813
5754 5754 5754 5755 5756 5757 5758 5760 5761 5762 5761 5761 5760 5758 5759 5762 5765 5768 5771 5772 5773 5773 5773 5772 5772 5773 5774 5775 5775 5775 5775 5777 5778 5779 5780 5781 5782 5783 5784 5785 5786 5787 5788 5790 5791 5791 5792 5794 5794 5795 5796 5795 5796 5797 5797 5797 5798 5798 5799 5800 5801 5802 5802 5803 5804 5804 5804 5804 5805 5805 5806 5806 5807 5807 5808 5808 5809 5809 5810 5810 5810 5811 5811 5811 5812
5751 5750 5750 5751 5752 5752 5754 5755 5755 5755 5754 5753 5752 5751 5753 5758 5763 5767 5769 5770 5771 5772 5771 5771 5770 5770 5771 5772 5772 5771 5772 5773 5775 5776 5777 5778 5780 5781 5782 5782 5783 5784 5786 5787 5788 5789 5790 5792 5792 5794 5794 5794 5794 5795 5795 5795 5796 5797 5798 5799 5800 5800 5801 5801 5802 5802 5802 5803 5803 5804 5805 5805 5805 5806 5807 5807 5807 5808 5808 5808 5809 5809 5809 5810 5810
5749 5748 5748 5749 5750 5749 5750 5750 5749 5749 5747 5746 5748 5751 5753 5756 5762 5766 5767 5767 5768 5769 5770 5770 5769 5769 5769 5769 5769 5768 5768 5770 5772 5773 5774 5776 5777 5779 5780 5780 5781 5782 5783 5785 5786 5787 5788 5790 5791 5792 5792 5792 5792 5793 5793 5794 5794 5795 5796 5797 5798 5798 5799 5799 5800 5800 5801 5801 5802 5803 5803 5803 5804 5804 5805 5806 5806 5806 5806 5807 5807 5808 5808 5808 5809
5747 5746 5747 5748 5748 5747 5747 5746 5745 5745 5745 5745 5746 5750 5752 5755 5760 5764 5764 5764 5764 5765 5767 5767 5767 5767 5768 5768 5768 5766 5765 5767 5769 5770 5772 5773 5775 5776 5778 5778 5779 5780 5781 5783 5784 5785 5786 5788 5790 5790 5790 5789 5790 5791 5792 5792 5793 5794 5795 5796 5796 5797 5797 5798 5798 5799 5799 5800 5801 5801 5802 5802 5802 5803 5804 5804 5804 5804 5805 5805 5805 5806 5806 5807 5807
5745 5744 5744 5745 5745 5745 5745 5743 5742 5742 5743 5743 5744 5746 5749 5753 5758 5760 5760 5760 5760 5761 5762 5764 5764 5765 5766 5767 5767 5766 5764 5765 5767 5769 5770 5772 5773 5774 5776 5777 5777 5778 5780 5781 5782 5783 5785 5787 5788 5788 5788 5788 5788 5789 5790 5791 5792 5793 5794 5795 5795 5795 5796 5796 5797 5797 5798 5798 5799 5800 5800 5801 5801 5801 5802 5802 5802 5802 5803 5803 5803 5804 5804 5805 5805
5741 5741 5741 5741 5741 5741 5741 5740 5739 5739 5740 5741 5741 5744 5747 5751 5753 5755 5756 5757 5756 5757 5758 5760 5760 5762 5763 5764 5766 5765 5764 5764 5766 5768 5769 5770 5771 5773 5774 5775 5776 5777 5778 5779 5780 5782 5783 5784 5785 5785 5786 5786 5787 5788 5788 5790 5791 5791 5792 5793 5793 5794 5794 5795 5795 5796 5796 5797 5797 5797 5798 5799 5799 5799 5800 5800 5800 5801 5801 5801 5801 5802 5802 5803 5803
5738 5738 5738 5738 5738 5738 5737 5737 5736 5737 5738 5738 5739 5741 5744 5746 5748 5751 5753 5753 5754 5754 5755 5757 5758 5760 5760 5761 5764 5765 5764 5764 5765 5767 5767 5768 5769 5771 5772 5773 5774 5774 5775 5777 5778 5780 5781 5782 5782 5783 5784 5784 5786 5786 5787 5788 5789 5790 5791 5791 5792 5793 5793 5793 5794 5794 5794 5795 5795 5795 5796 5796 5797 5797 5798 5798 5798 5799 5799 5799 5799 5799 5800 5801 5801
5736 5736 5735 5735 5735 5735 5735 5735 5735 5735 5735 5735 5736 5737 5739 5742 5745 5748 5749 5750 5752 5753 5754 5755 5757 5759 5759 5758 5760 5762 5762 5763 5764 5765 5765 5766 5767 5769 5770 5770 5771 5772 5773 5775 5776 5777 5779 5780 5780 5781 5782 5783 5784 5785 5785 5786 5787 5788 5789 5789 5790 5791 5791 5791 5791 5792 5792 5793 5793 5794 5794 5794 5795 5795 5795 5796 5796 5796 5796 5797 5797 5798 5798 5799 5800
5734 5734 5734 5734 5733 5733 5734 5735 5735 5734 5732 5732 5734 5736 5737 5740 5742 5744 5745 5748 5750 5751 5752 5752 5754 5756 5756 5755 5757 5759 5760 5761 5762 5762 5763 5763 5765 5766 5767 5768 5769 5771 5772 5773 5774 5775 5777 5778 5778 5779 5780 5781 5782 5783 5783 5784 5785 5786 5787 5788 5788 5789 5789 5789 5789 5790 5790 5791 5792 5792 5792 5792 5793 5793 5793 5793 5793 5794 5794 5794 5795 5796 5797 5798 5798
5733 5733 5734 5734 5732 5732 5733 5734 5734 5733 5732 5733 5735 5737 5739 5740 5741 5742 5744 5746 5747 5748 5749 5749 5751 5753 5754 5754 5755 5756 5757 5758 5759 5760 5760 5761 5762 5764 5765 5766 5768 5770 5770 5771 5772 5773 5775 5776 5776 5777 5778 5779 5780 5780 5781 5782 5783 5784 5785 5786 5786 5787 5787 5787 5787 5788 5789 5789 5790 5790 5790 5791 5791 5791 5791 5791 5791 5791 5791 5792 5792 5793 5794 5795 5796
5730 5730 5732 5733 5732 5731 5732 5733 5733 5733 5733 5735 5736 5737 5739 5740 5741 5742 5743 5744 5744 5745 5745 5746 5748 5749 5751 5752 5753 5754 5755 5756 5757 5758 5758 5759 5761 5762 5763 5765 5767 5768 5768 5769 5770 5771 5773 5773 5774 5775 5775 5776 5777 5778 5779 5780 5781 5782 5783 5783 5784 5784 5785 5785 5786 5786 5787 5788 5788 5788 5788 5788 5788 5788 5788 5788 5789 5789 5789 5789 5789 5790 5791 5792 5792
5727 5728 5729 5730 5731 5730 5730 5733 5733 5733 5734 5736 5737 5737 5738 5739 5740 5741 5741 5741 5741 5742 5743 5744 5745 5747 5748 5750 5751 5752 5753 5754 5755 5756 5756 5757 5758 5760 5761 5763 5765 5766 5767 5767 5768 5769 5770 5771 5771 5772 5773 5774 5774 5775 5776 5778 5779 5780 5781 5782 5782 5783 5783 5783 5784 5784 5785 5785 5786 5786 5786 5786 5786 5786 5786 5786 5786 5787 5787 5786 5786 5787 5788 5789 5789
5726 5726 5726 5727 5728 5727 5727 5730 5732 5732 5732 5734 5734 5734 5735 5737 5738 5739 5739 5739 5739 5740 5741 5741 5743 5744 5746 5748 5749 5750 5751 5751 5752 5753 5754 5755 5756 5757 5759 5761 5762 5764 5765 5766 5767 5767 5768 5768 5769 5769 5770 5771 5772 5773 5775 5776 5777 5778 5779 5780 5780 5781 5781 5781 5781 5782 5782 5783 5783 5783 5784 5784 5783 5783 5783 5783 5784 5784 5785 5784 5783 5784 5785 5786 5786
5723 5724 5724 5725 5725 5725 5726 5727 5728 5729 5730 5731 5731 5732 5732 5733 5735 5737 5738 5738 5738 5739 5739 5740 5740 5741 5743 5745 5746 5748 5748 5749 5749 5751 5752 5753 5753 5754 5756 5758 5760 5762 5763 5764 5765 5766 5766 5766 5767 5768 5769 5770 5771 5772 5773 5774 5775 5776 5776 5777 5778 5778 5779 5779 5779 5779 5780 5780 5780 5781 5781 5781 5781 5781 5781 5781 5782 5782 5782 5782 5782 5782 5782 5782 5782
5722 5722 5723 5723 5724 5724 5725 5726 5727 5727 5728 5729 5730 5730 5730 5731 5733 5735 5736 5736 5736 5737 5737 5737 5738 5738 5740 5742 5743 5745 5746 5746 5747 5748 5749 5750 5751 5752 5753 5755 5758 5759 5761 5762 5764 5764 5764 5765 5765 5766 5767 5768 5769 5770 5771 5772 5773 5773 5774 5775 5775 5776 5776 5777 5777 5777 5778 5778 5778 5779 5779 5779 5779 5778 5778 5779 5779 5779 5779 5779 5779 5779 5779 5779 5779
5721 5721 5721 5722 5723 5724 5725 5726 5726 5727 5727 5728 5728 5729 5730 5731 5732 5733 5734 5734 5734 5734 5734 5734 5735 5736 5737 5739 5740 5742 5743 5744 5745 5745 5746 5747 5748 5750 5751 5753 5755 5757 5758 5760 5761 5762 5763 5763 5764 5764 5765 5766 5767 5768 5769 5770 5771 5771 5772 5772 5773 5773 5774 5774 5775 5775 5776 5776 5776 5776 5777 5776 5776 5775 5775 5775 5775 5775 5775 5776 5776 5776 5775 5775 5776
5720 5720 5720 5721 5722 5723 5724 5725 5726 5727 5727 5728 5728 5729 5729 5730 5731 5732 5732 5732 5732 5731 5731 5732 5733 5734 5735 5736 5737 5738 5740 5741 5742 5743 5744 5745 5746 5748 5749 5751 5753 5754 5756 5758 5759 5760 5761 5761 5761 5763 5764 5765 5766 5766 5767 5768 5768 5769 5769 5770 5770 5771 5771 5772 5773 5774 5774 5774 5774 5774 5773 5773 5773 5772 5771 5771 5772 5772 5772 5772 5772 5772 5772 5771 5772
5719 5719 5719 5720 5721 5722 5723 5724 5725 5726 5727 5727 5728 5728 5728 5729 5730 5730 5730 5730 5729 5729 5729 5730 5731 5732 5732 5733 5734 5735 5737 5738 5739 5740 5741 5742 5744 5746 5747 5749 5750 5752 5754 5755 5756 5757 5758 5758 5759 5761 5762 5763 5764 5764 5765 5765 5766 5766 5767 5767 5768 5768 5769 5770 5771 5772 5771 5771 5771 5770 5770 5770 5770 5770 5769 5769 5769 5769 5769 5769 5769 5770 5769 5769 5768
5718 5718 5718 5719 5720 5721 5722 5723 5724 5725 5726 5726 5727 5727 5728 5728 5728 5728 5728 5728 5727 5727 5728 5728 5729 5730 5730 5731 5732 5733 5735 5736 5737 5738 5739 5740 5742 5743 5745 5746 5748 5750 5752 5753 5754 5754 5755 5756 5758 5759 5760 5761 5761 5762 5762 5763 5763 5764 5765 5765 5765 5766 5767 5768 5768 5768 5768 5768 5767 5767 5767 5768 5768 5768 5768 5768 5767 5767 5767 5766 5766 5767 5767 5767 5766
5716 5717 5717 5718 5719 5720 5721 5722 5723 5723 5724 5725 5725 5726 5726 5727 5727 5727 5727 5726 5725 5726 5726 5726 5727 5728 5728 5729 5730 5732 5733 5734 5735 5735 5737 5738 5739 5741 5742 5744 5746 5748 5749 5751 5751 5751 5753 5755 5756 5757 5758 5759 5759 5759 5760 5760 5761 5762 5762 5762 5763 5764 5764 5765 5765 5764 5764 5764 5764 5764 5765 5765 5765 5766 5766 5766 5765 5765 5765 5765 5764 5764 5764 5764 5763
5715 5715 5716 5717 5718 5718 5719 5720 5721 5722 5723 5723 5724 5724 5725 5726 5726 5725 5725 5724 5723 5723 5724 5724 5725 5726 5727 5728 5729 5731 5731 5732 5733 5733 5734 5736 5737 5738 5739 5741 5743 5745 5747 5748 5748 5749 5751 5753 5754 5755 5756 5756 5756 5756 5757 5757 5758 5759 5759 5760 5760 5761 5762 5762 5762 5761 5761 5761 5761 5761 5762 5763 5763 5763 5764 5763 5763 5762 5762 5762 5762 5762 5761 5761 5761
5713 5714 5715 5715 5716 5717 5718 5719 5720 5721 5721 5722 5722 5723 5724 5724 5724 5724 5723 5722 5722 5722 5722 5723 5724 5724 5725 5726 5728 5730 5730 5729 5730 5732 5732 5733 5734 5735 5737 5739 5741 5743 5745 5745 5746 5747 5749 5750 5751 5752 5753 5753 5753 5754 5754 5755 5755 5756 5756 5756 5757 5758 5759 5759 5759 5759 5759 5759 5758 5758 5759 5760 5760 5760 5760 5760 5760 5760 5760 5760 5760 5760 5759 5759 5758
5712 5712 5713 5714 5715 5715 5716 5717 5718 5719 5720 5720 5721 5721 5722 5723 5722 5722 5721 5721 5721 5721 5721 5722 5723 5723 5724 5724 5725 5728 5729 5728 5728 5730 5731 5731 5732 5733 5735 5736 5738 5740 5742 5743 5744 5745 5746 5748 5749 5749 5749 5750 5750 5751 5751 5752 5752 5752 5753 5753 5754 5755 5756 5757 5757 5756 5756 5756 5756 5756 5756 5756 5755 5756 5756 5757 5757 5757 5757 5757 5757 5757 5757 5756 5756
5710 5710 5711 5712 5713 5714 5714 5715 5716 5717 5718 5719 5719 5720 5720 5720 5720 5720 5720 5720 5720 5720 5720 5721 5722 5722 5722 5722 5723 5725 5726 5727 5727 5728 5729 5729 5730 5731 5732 5734 5736 5738 5740 5741 5742 5743 5744 5745 5746 5747 5746 5746 5747 5747 5748 5749 5749 5749 5750 5751 5751 5752 5752 5753 5754 5754 5754 5753 5753 5752 5752 5752 5752 5753 5753 5754 5754 5755 5755 5754 5754 5754 5754 5753 5753
5707 5708 5709 5709 5711 5711 5712 5713 5714 5715 5716 5716 5717 5717 5718 5718 5718 5718 5719 5719 5719 5719 5719 5719 5720 5721 5721 5721 5722 5723 5724 5725 5726 5726 5727 5728 5728 5729 5731 5732 5734 5736 5737 5738 5739 5740 5741 5742 5743 5743 5743 5743 5743 5744 5745 5745 5746 5746 5747 5749 5749 5748 5748 5749 5750 5750 5750 5750 5750 5750 5749 5750 5750 5750 5750 5750 5750 5751 5751 5751 5750 5750 5750 5749 5749
5705 5705 5706 5707 5708 5709 5710 5711 5711 5712 5713 5714 5715 5715 5715 5716 5716 5716 5717 5717 5717 5717 5717 5718 5718 5719 5720 5720 5721 5721 5723 5724 5724 5725 5726 5726 5727 5728 5729 5730 5732 5733 5735 5736 5736 5737 5737 5738 5739 5740 5740 5740 5740 5740 5741 5741 5742 5742 5743 5745 5745 5744 5744 5745 5746 5746 5746 5747 5747 5747 5747 5747 5747 5746 5746 5746 5747 5747 5746 5746 5746 5745 5745 5745 5744
5702 5702 5703 5704 5705 5706 5707 5708 5709 5710 5711 5711 5712 5712 5712 5713 5713 5714 5714 5715 5715 5715 5716 5716 5717 5718 5718 5719 5720 5720 5721 5722 5722 5723 5724 5724 5725 5726 5727 5728 5729 5730 5732 5733 5733 5734 5734 5735 5736 5736 5737 5737 5736 5737 5737 5737 5737 5737 5738 5739 5740 5740 5741 5741 5742 5743 5743 5744 5744 5744 5744 5743 5743 5742 5743 5743 5743 5743 5742 5742 5741 5741 5740 5740 5740
5700 5700 5700 5700 5701 5702 5704 5705 5706 5707 5708 5708 5709 5709 5709 5710 5711 5711 5712 5712 5713 5714 5714 5715 5716 5716 5716 5717 5718 5719 5719 5720 5720 5721 5722 5722 5723 5723 5724 5725 5726 5727 5728 5730 5730 5731 5732 5732 5732 5733 5733 5733 5733 5733 5733 5733 5733 5733 5734 5734 5735 5736 5737 5737 5738 5740 5740 5740 5740 5740 5740 5740 5739 5739 5739 5739 5739 5739 5738 5738 5737 5737 5736 5736 5735
5697 5697 5697 5697 5698 5699 5699 5700 5702 5703 5705 5705 5706 5706 5706 5707 5708 5709 5709 5710 5711 5712 5712 5713 5713 5714 5714 5715 5716 5716 5716 5717 5718 5719 5720 5720 5720 5721 5722 5722 5723 5724 5725 5726 5727 5728 5729 5729 5729 5730 5730 5730 5730 5730 5730 5730 5730 5730 5730 5731 5732 5732 5733 5734 5735 5735 5735 5735 5735 5736 5736 5736 5736 5736 5735 5735 5735 5735 5734 5734 5733 5733 5732 5731 5731
5693 5693 5694 5694 5694 5695 5696 5696 5697 5699 5701 5701 5702 5703 5703 5704 5704 5705 5706 5707 5708 5709 5709 5710 5711 5712 5712 5714 5714 5714 5714 5715 5716 5717 5718 5718 5718 5719 5719 5720 5721 5722 5723 5724 5725 5726 5726 5726 5727 5727 5728 5727 5727 5727 5727 5727 5727 5727 5728 5728 5728 5729 5730 5730 5731 5731 5731 5731 5731 5731 5732 5732 5731 5731 5731 5731 5731 5731 5730 5729 5729 5728 5727 5727 5726
5689 5690 5690 5691 5691 5691 5692 5692 5693 5695 5696 5697 5699 5699 5700 5700 5701 5702 5702 5703 5704 5705 5706 5707 5708 5709 5710 5711 5712 5712 5712 5712 5713 5715 5715 5716 5716 5717 5718 5718 5719 5720 5721 5722 5723 5723 5724 5724 5724 5725 5725 5725 5724 5724 5724 5724 5724 5725 5725 5725 5726 5726 5727 5727 5727 5728 5728 5728 5727 5727 5727 5727 5727 5727 5726 5726 5726 5725 5725 5724 5723 5722 5721 5721 5720
5686 5686 5687 5687 5688 5688 5688 5689 5689 5691 5692 5693 5694 5695 5696 5696 5697 5698 5699 5699 5700 5701 5702 5703 5704 5705 5707 5707 5708 5709 5709 5709 5709 5711 5712 5712 5713 5714 5715 5715 5716 5717 5718 5719 5720 5720 5721 5721 5721 5722 5722 5721 5721 5721 5721 5721 5721 5721 5722 5722 5722 5723 5723 5724 5724 5724 5724 5724 5723 5723 5723 5723 5722 5722 5721 5720 5720 5719 5718 5717 5716 5715 5714 5713 5713
5682 5683 5683 5684 5684 5685 5685 5685 5686 5687 5688 5689 5690 5692 5693 5693 5693 5694 5695 5695 5696 5697 5698 5699 5700 5701 5702 5703 5704 5705 5706 5706 5706 5707 5707 5708 5709 5709 5710 5711 5712 5713 5714 5715 5716 5717 5718 5718 5719 5719 5718 5717 5717 5718 5718 5717 5717 5718 5718 5718 5718 5718 5719 5719 5719 5719 5719 5719 5718 5718 5717 5717 5717 5716 5715 5715 5714 5714 5712 5711 5710 5708 5707 5706 5705
5679 5679 5680 5680 5681 5681 5682 5682 5683 5683 5684 5685 5686 5688 5689 5691 5691 5691 5691 5692 5693 5694 5695 5696 5697 5697 5698 5699 5700 5701 5702 5702 5702 5703 5704 5704 5705 5705 5706 5708 5708 5709 5710 5711 5713 5714 5714 5715 5715 5715 5714 5713 5714 5714 5714 5713 5713 5714 5714 5714 5714 5714 5714 5713 5714 5713 5713 5712 5712 5712 5711 5711 5711 5710 5710 5709 5709 5708 5706 5705 5703 5701 5700 5699 5698
5675 5675 5676 5677 5678 5678 5679 5679 5679 5680 5680 5681 5682 5684 5686 5687 5688 5688 5689 5689 5690 5691 5692 5692 5693 5694 5694 5695 5696 5697 5698 5698 5699 5699 5701 5701 5702 5702 5703 5704 5705 5705 5706 5707 5709 5710 5710 5710 5711 5711 5710 5710 5710 5710 5710 5709 5709 5710 5710 5710 5710 5709 5708 5708 5708 5708 5707 5706 5706 5706 5705 5705 5705 5704 5703 5703 5702 5701 5699 5698 5696 5694 5692 5691 5690
5671 5672 5673 5674 5675 5675 5676 5676 5677 5677 5678 5678 5679 5680 5682 5683 5684 5685 5686 5687 5687 5688 5688 5689 5689 5690 5691 5692 5692 5693 5694 5694 5695 5696 5697 5698 5698 5699 5700 5700 5701 5701 5702 5703 5704 5705 5706 5706 5706 5706 5706 5705 5705 5705 5705 5705 5705 5705 5705 5705 5705 5705 5704 5703 5703 5702 5702 5701 5700 5700 5699 5699 5699 5698 5696 5695 5694 5693 5692 5690 5688 5685 5683 5681 5680
5667 5668 5669 5671 5671 5672 5673 5673 5674 5674 5675 5676 5676 5677 5678 5679 5680 5681 5683 5683 5684 5685 5686 5686 5686 5686 5687 5688 5689 5690 5691 5691 5691 5692 5693 5694 5695 5695 5696 5696 5696 5697 5697 5698 5699 5700 5701 5701 5701 5702 5701 5701 5701 5700 5700 5700 5700 5700 5700 5700 5700 5700 5699 5699 5698 5697 5697 5696 5694 5694 5693 5693 5692 5691 5689 5688 5687 5686 5685 5683 5680 5677 5673 5671 5670
5663 5664 5666 5667 5668 5668 5669 5670 5671 5671 5672 5672 5673 5673 5674 5675 5676 5677 5678 5679 5680 5682 5683 5683 5683 5683 5683 5684 5685 5686 5687 5687 5687 5688 5688 5689 5689 5690 5691 5691 5691 5692 5692 5693 5694 5694 5695 5696 5696 5696 5697 5697 5696 5696 5696 5695 5695 5695 5695 5695 5695 5695 5694 5693 5692 5691 5691 5690 5689 5687 5686 5685 5684 5683 5682 5681 5679 5678 5677 5675 5673 5670 5666 5663 5661
5660 5661 5662 5663 5664 5664 5665 5667 5668 5669 5669 5670 5670 5670 5670 5670 5671 5672 5673 5674 5676 5677 5679 5679 5679 5679 5679 5680 5680 5681 5682 5683 5683 5683 5683 5684 5684 5685 5685 5686 5686 5687 5687 5688 5688 5689 5690 5690 5690 5691 5691 5691 5691 5691 5690 5690 5690 5689 5689 5689 5689 5689 5689 5688 5687 5686 5685 5684 5682 5681 5680 5679 5678 5676 5674 5673 5672 5670 5669 5667 5665 5663 5660 5657 5654
5657 5658 5659 5659 5660 5661 5662 5664 5664 5665 5665 5666 5666 5666 5666 5667 5667 5668 5669 5670 5671 5672 5674 5674 5675 5675 5675 5675 5676 5676 5677 5678 5679 5679 5679 5680 5680 5681 5681 5681 5682 5682 5683 5683 5683 5684 5684 5685 5685 5685 5685 5685 5685 5685 5684 5684 5683 5683 5683 5683 5683 5683 5682 5682 5681 5681 5679 5677 5676 5674 5673 5672 5671 5669 5667 5665 5664 5662 5661 5659 5657 5654 5651 5649 5646